Flag for Jordan Weather past 2 weeks in Zarqa, Jordan

Now
52 °F

Scattered clouds.


Feels Like: 48 °F
Forecast: 48 / 65 °F
Wind: 12 mph from West

Location: Amman Airport

Current Time: Mar 4, 2015 at 11:28:51 AM

Latest Report: Mar 4, 2015 at 11:00 AM


Visibility: 2 mi

Pressure: 30.15 "Hg

Humidity: 88%

Dew point: 48 °F

Location of ZarqaLocation

Historic Weather in Zarqa — Graph

°F

Zarqa temperature yesterday

Maximum temperature yesterday: 57 °F (at 2:00 PM)
Minimum temperature yesterday: 45 °F (at 1:00 AM)
Average temperature yesterday: 50 °F

Past Weeks' High & Low Weather Summary

 TemperatureHumidityPressure
High72 °F (Feb 27, 3:00 PM)100% (Feb 20, 5:00 AM)30.27 "Hg (Feb 20, 5:00 AM)
Low30 °F (Feb 20, 4:00 AM)22% (Feb 27, 3:00 PM)29.65 "Hg (Feb 20, 5:00 AM)
Average48 °F69%30.03 "Hg
* Reported Feb 17 10:00 AM — Mar 4 10:00 AM, Zarqa, Weather by CustomWeather, © 2015

Note: Actual official high and low records may vary slightly from our data, if they occured in-between our weather recording intervals... More about our weather records

Advertising

Zarqa weather history for previous 24 hours

 ConditionsComfort  
Time TempWeatherWind HumidityBarometerVisibility
10:00 AM
Wed, Mar 4
48 °FRain. Broken clouds.5 mph87%30.15 "Hg1 mi
9:00 AM48 °FRain. Broken clouds.6 mph87%30.15 "Hg1 mi
8:00 AM48 °FScattered clouds.9 mph87%30.12 "Hg1 mi
7:00 AM48 °FScattered clouds.7 mph82%30.07 "Hg2 mi
6:00 AM48 °FFog.7 mph82%30.09 "Hg2 mi
5:00 AM48 °FDrizzle. Overcast.9 mph82%30.09 "Hg2 mi
4:00 AM48 °FPassing clouds.9 mph82%30.09 "Hg3 mi
3:00 AM48 °FPassing clouds.9 mph76%30.12 "Hg2 mi
2:00 AM48 °FPassing clouds.9 mph76%30.12 "Hg3 mi
1:00 AM48 °FHaze.12 mph76%30.15 "Hg3 mi
12:00 AM48 °FHaze.12 mph71%30.15 "Hg3 mi
11:00 PM
Tue, Mar 3
50 °FHaze.12 mph67%30.15 "Hg3 mi
10:00 PM50 °FPassing clouds.12 mph54%30.15 "Hg3 mi
9:00 PM50 °FPassing clouds.12 mph54%30.15 "Hg4 mi
8:00 PM50 °FPassing clouds.9 mph62%30.12 "Hg4 mi
7:00 PM52 °FPassing clouds.12 mph62%30.15 "Hg3 mi
6:00 PM52 °FPassing clouds.14 mph62%30.15 "Hg3 mi
5:00 PM54 °FScattered clouds.14 mph58%30.12 "Hg3 mi
4:00 PM55 °FScattered clouds.16 mph55%30.12 "Hg3 mi
2:00 PM57 °FScattered clouds.16 mph51%30.12 "Hg3 mi
1:00 PM55 °FScattered clouds.13 mph55%30.12 "Hg3 mi
11:00 AM55 °FScattered clouds.9 mph55%30.15 "Hg3 mi
Weather by CustomWeather, © 2015

See weather overviewHow to use our weather pages